owner,sensor,date,latitude,longitude,sea_water_turbidity,qcFlag 
SCCF RECON,ioos:station:SCCF:51:1,2008-04-01T00:00:00Z,26.5545,-82.1715,2.78,1111122 
SCCF RECON,ioos:station:SCCF:51:1,2008-04-01T01:00:00Z,26.5545,-82.1715,2.74,1111122 
SCCF RECON,ioos:station:SCCF:51:1,2008-04-01T02:00:00Z,26.5545,-82.1715,2.91,1111122 
SCCF RECON,ioos:station:SCCF:51:1,2008-04-01T03:00:00Z,26.5545,-82.1715,3.34,1111122 
SCCF RECON,ioos:station:SCCF:51:1,2008-04-01T04:00:00Z,26.5545,-82.1715,4.19,1111122 
SCCF RECON,ioos:station:SCCF:51:1,2008-04-01T05:00:00Z,26.5545,-82.1715,3.0,1111122 
SCCF RECON,ioos:station:SCCF:51:1,2008-04-01T06:00:00Z,26.5545,-82.1715,2.78,1111122 
SCCF RECON,ioos:station:SCCF:51:1,2008-04-01T07:00:00Z,26.5545,-82.1715,2.66,1111122 
SCCF RECON,ioos:station:SCCF:51:1,2008-04-01T08:00:00Z,26.5545,-82.1715,2.72,1111122 
SCCF RECON,ioos:station:SCCF:51:1,2008-04-01T09:00:00Z,26.5545,-82.1715,11.66,1111122 
SCCF RECON,ioos:station:SCCF:51:1,2008-04-01T10:00:00Z,26.5545,-82.1715,3.24,1111122 
SCCF RECON,ioos:station:SCCF:51:1,2008-04-01T11:00:00Z,26.5545,-82.1715,2.84,1111122 
SCCF RECON,ioos:station:SCCF:51:1,2008-04-01T12:00:00Z,26.5545,-82.1715,2.84,1111122 
SCCF RECON,ioos:station:SCCF:51:1,2008-04-01T13:00:00Z,26.5545,-82.1715,3.51,1111122 
SCCF RECON,ioos:station:SCCF:51:1,2008-04-01T14:00:00Z,26.5545,-82.1715,2.99,1111122 
SCCF RECON,ioos:station:SCCF:51:1,2008-04-01T15:00:00Z,26.5545,-82.1715,3.26,1111122 
SCCF RECON,ioos:station:SCCF:51:1,2008-04-01T16:00:00Z,26.5545,-82.1715,2.81,1111122 
SCCF RECON,ioos:station:SCCF:51:1,2008-04-01T17:00:00Z,26.5545,-82.1715,3.34,1111122 
SCCF RECON,ioos:station:SCCF:51:1,2008-04-01T18:00:00Z,26.5545,-82.1715,3.78,1111122 
SCCF RECON,ioos:station:SCCF:51:1,2008-04-01T19:00:00Z,26.5545,-82.1715,3.85,1111122 
SCCF RECON,ioos:station:SCCF:51:1,2008-04-01T20:00:00Z,26.5545,-82.1715,2.62,1111122 
SCCF RECON,ioos:station:SCCF:51:1,2008-04-01T21:00:00Z,26.5545,-82.1715,2.61,1111122 
SCCF RECON,ioos:station:SCCF:51:1,2008-04-01T22:00:00Z,26.5545,-82.1715,2.61,1111122 
SCCF RECON,ioos:station:SCCF:51:1,2008-04-01T23:00:00Z,26.5545,-82.1715,2.72,1111122 
SCCF RECON,ioos:station:SCCF:51:1,2008-04-02T00:00:00Z,26.5545,-82.1715,3.04,1111122 
SCCF RECON,ioos:station:SCCF:51:1,2008-04-02T01:00:00Z,26.5545,-82.1715,3.54,1111122 
SCCF RECON,ioos:station:SCCF:51:1,2008-04-02T02:00:00Z,26.5545,-82.1715,3.3,1111122 
SCCF RECON,ioos:station:SCCF:51:1,2008-04-02T03:00:00Z,26.5545,-82.1715,3.06,1111122 
SCCF RECON,ioos:station:SCCF:51:1,2008-04-02T04:00:00Z,26.5545,-82.1715,10.72,1111122 
SCCF RECON,ioos:station:SCCF:51:1,2008-04-02T05:00:00Z,26.5545,-82.1715,3.06,1111122 
SCCF RECON,ioos:station:SCCF:51:1,2008-04-02T06:00:00Z,26.5545,-82.1715,2.72,1111122 
SCCF RECON,ioos:station:SCCF:51:1,2008-04-02T07:00:00Z,26.5545,-82.1715,3.23,1111122 
SCCF RECON,ioos:station:SCCF:51:1,2008-04-02T08:00:00Z,26.5545,-82.1715,3.07,1111122 
SCCF RECON,ioos:station:SCCF:51:1,2008-04-02T09:00:00Z,26.5545,-82.1715,2.59,1111122 
SCCF RECON,ioos:station:SCCF:51:1,2008-04-02T10:00:00Z,26.5545,-82.1715,2.55,1111122 
SCCF RECON,ioos:station:SCCF:51:1,2008-04-02T11:00:00Z,26.5545,-82.1715,2.84,1111122 
SCCF RECON,ioos:station:SCCF:51:1,2008-04-02T12:00:00Z,26.5545,-82.1715,2.85,1111122 
SCCF RECON,ioos:station:SCCF:51:1,2008-04-02T13:00:00Z,26.5545,-82.1715,3.08,1111122 
SCCF RECON,ioos:station:SCCF:51:1,2008-04-02T14:00:00Z,26.5545,-82.1715,3.04,1111122 
SCCF RECON,ioos:station:SCCF:51:1,2008-04-02T15:00:00Z,26.5545,-82.1715,2.85,1111122 
SCCF RECON,ioos:station:SCCF:51:1,2008-04-02T16:00:00Z,26.5545,-82.1715,2.69,1111122 
SCCF RECON,ioos:station:SCCF:51:1,2008-04-02T17:00:00Z,26.5545,-82.1715,2.73,1111122 
SCCF RECON,ioos:station:SCCF:51:1,2008-04-02T18:00:00Z,26.5545,-82.1715,3.05,1111122 
SCCF RECON,ioos:station:SCCF:51:1,2008-04-02T19:00:00Z,26.5545,-82.1715,3.58,1111122 
SCCF RECON,ioos:station:SCCF:51:1,2008-04-02T20:00:00Z,26.5545,-82.1715,2.74,1111122 
SCCF RECON,ioos:station:SCCF:51:1,2008-04-02T21:00:00Z,26.5545,-82.1715,2.65,1111122 
SCCF RECON,ioos:station:SCCF:51:1,2008-04-02T22:00:00Z,26.5545,-82.1715,4.84,1111122 
SCCF RECON,ioos:station:SCCF:51:1,2008-04-02T23:00:00Z,26.5545,-82.1715,3.0,1111122 
SCCF RECON,ioos:station:SCCF:51:1,2008-04-03T00:00:00Z,26.5545,-82.1715,3.87,1111122 
SCCF RECON,ioos:station:SCCF:51:1,2008-04-03T01:00:00Z,26.5545,-82.1715,2.9,1111122 
SCCF RECON,ioos:station:SCCF:51:1,2008-04-03T02:00:00Z,26.5545,-82.1715,2.99,1111122 
SCCF RECON,ioos:station:SCCF:51:1,2008-04-03T03:00:00Z,26.5545,-82.1715,2.88,1111122 
SCCF RECON,ioos:station:SCCF:51:1,2008-04-03T04:00:00Z,26.5545,-82.1715,2.88,1111122 
SCCF RECON,ioos:station:SCCF:51:1,2008-04-03T05:00:00Z,26.5545,-82.1715,2.88,1111122 
SCCF RECON,ioos:station:SCCF:51:1,2008-04-03T06:00:00Z,26.5545,-82.1715,2.94,1111122 
SCCF RECON,ioos:station:SCCF:51:1,2008-04-03T07:00:00Z,26.5545,-82.1715,2.99,1111122 
SCCF RECON,ioos:station:SCCF:51:1,2008-04-03T08:00:00Z,26.5545,-82.1715,2.68,1111122 
SCCF RECON,ioos:station:SCCF:51:1,2008-04-03T09:00:00Z,26.5545,-82.1715,2.72,1111122 
SCCF RECON,ioos:station:SCCF:51:1,2008-04-03T10:00:00Z,26.5545,-82.1715,2.63,1111122 
SCCF RECON,ioos:station:SCCF:51:1,2008-04-03T11:00:00Z,26.5545,-82.1715,2.89,1111122 
SCCF RECON,ioos:station:SCCF:51:1,2008-04-03T12:00:00Z,26.5545,-82.1715,3.4,1111122 
SCCF RECON,ioos:station:SCCF:51:1,2008-04-03T13:00:00Z,26.5545,-82.1715,6.6,1111122 
SCCF RECON,ioos:station:SCCF:51:1,2008-04-03T14:00:00Z,26.5545,-82.1715,5.19,1111122 
SCCF RECON,ioos:station:SCCF:51:1,2008-04-03T15:00:00Z,26.5545,-82.1715,4.89,1111122 
SCCF RECON,ioos:station:SCCF:51:1,2008-04-03T16:00:00Z,26.5545,-82.1715,5.14,1111122 
SCCF RECON,ioos:station:SCCF:51:1,2008-04-03T17:00:00Z,26.5545,-82.1715,2.87,1111122 
SCCF RECON,ioos:station:SCCF:51:1,2008-04-03T20:00:00Z,26.5545,-82.1715,3.43,1111122 
SCCF RECON,ioos:station:SCCF:51:1,2008-04-03T21:00:00Z,26.5545,-82.1715,3.31,1111122 
SCCF RECON,ioos:station:SCCF:51:1,2008-04-03T22:00:00Z,26.5545,-82.1715,2.73,1111122 
SCCF RECON,ioos:station:SCCF:51:1,2008-04-03T23:00:00Z,26.5545,-82.1715,3.36,1111122 
SCCF RECON,ioos:station:SCCF:51:1,2008-04-04T00:00:00Z,26.5545,-82.1715,3.2,1111122 
SCCF RECON,ioos:station:SCCF:51:1,2008-04-04T01:00:00Z,26.5545,-82.1715,3.81,1111122 
SCCF RECON,ioos:station:SCCF:51:1,2008-04-04T02:00:00Z,26.5545,-82.1715,3.43,1111122 
SCCF RECON,ioos:station:SCCF:51:1,2008-04-04T03:00:00Z,26.5545,-82.1715,3.54,1111122 
SCCF RECON,ioos:station:SCCF:51:1,2008-04-04T04:00:00Z,26.5545,-82.1715,3.55,1111122 
SCCF RECON,ioos:station:SCCF:51:1,2008-04-04T05:00:00Z,26.5545,-82.1715,3.28,1111122 
SCCF RECON,ioos:station:SCCF:51:1,2008-04-04T06:00:00Z,26.5545,-82.1715,3.89,1111122 
SCCF RECON,ioos:station:SCCF:51:1,2008-04-04T07:00:00Z,26.5545,-82.1715,3.62,1111122 
SCCF RECON,ioos:station:SCCF:51:1,2008-04-04T08:00:00Z,26.5545,-82.1715,4.5,1111122 
SCCF RECON,ioos:station:SCCF:51:1,2008-04-04T09:00:00Z,26.5545,-82.1715,3.98,1111122 
SCCF RECON,ioos:station:SCCF:51:1,2008-04-04T10:00:00Z,26.5545,-82.1715,3.69,1111122 
SCCF RECON,ioos:station:SCCF:51:1,2008-04-04T11:00:00Z,26.5545,-82.1715,3.89,1111122 
SCCF RECON,ioos:station:SCCF:51:1,2008-04-04T12:00:00Z,26.5545,-82.1715,4.45,1111122 
SCCF RECON,ioos:station:SCCF:51:1,2008-04-04T13:00:00Z,26.5545,-82.1715,4.54,1111122 
SCCF RECON,ioos:station:SCCF:51:1,2008-04-04T14:00:00Z,26.5545,-82.1715,4.58,1111122 
SCCF RECON,ioos:station:SCCF:51:1,2008-04-04T15:00:00Z,26.5545,-82.1715,5.21,1111122 
SCCF RECON,ioos:station:SCCF:51:1,2008-04-04T16:00:00Z,26.5545,-82.1715,4.04,1111122 
SCCF RECON,ioos:station:SCCF:51:1,2008-04-04T17:00:00Z,26.5545,-82.1715,3.45,1111122 
SCCF RECON,ioos:station:SCCF:51:1,2008-04-04T18:00:00Z,26.5545,-82.1715,7.88,1111122 
SCCF RECON,ioos:station:SCCF:51:1,2008-04-04T19:00:00Z,26.5545,-82.1715,7.31,1111122 
SCCF RECON,ioos:station:SCCF:51:1,2008-04-04T20:00:00Z,26.5545,-82.1715,7.52,1111122 
SCCF RECON,ioos:station:SCCF:51:1,2008-04-04T21:00:00Z,26.5545,-82.1715,6.05,1111122 
SCCF RECON,ioos:station:SCCF:51:1,2008-04-04T22:00:00Z,26.5545,-82.1715,5.33,1111122 
SCCF RECON,ioos:station:SCCF:51:1,2008-04-04T23:00:00Z,26.5545,-82.1715,5.91,1111122 
SCCF RECON,ioos:station:SCCF:51:1,2008-04-05T00:00:00Z,26.5545,-82.1715,5.97,1111122 
SCCF RECON,ioos:station:SCCF:51:1,2008-04-05T01:00:00Z,26.5545,-82.1715,6.83,1111122 
SCCF RECON,ioos:station:SCCF:51:1,2008-04-05T02:00:00Z,26.5545,-82.1715,8.54,1111122 
SCCF RECON,ioos:station:SCCF:51:1,2008-04-05T03:00:00Z,26.5545,-82.1715,7.37,1111122 
SCCF RECON,ioos:station:SCCF:51:1,2008-04-05T04:00:00Z,26.5545,-82.1715,6.26,1111122 
SCCF RECON,ioos:station:SCCF:51:1,2008-04-05T05:00:00Z,26.5545,-82.1715,5.9,1111122 
SCCF RECON,ioos:station:SCCF:51:1,2008-04-05T06:00:00Z,26.5545,-82.1715,6.09,1111122 
SCCF RECON,ioos:station:SCCF:51:1,2008-04-05T07:00:00Z,26.5545,-82.1715,6.5,1111122 
SCCF RECON,ioos:station:SCCF:51:1,2008-04-05T08:00:00Z,26.5545,-82.1715,10.91,1111122 
SCCF RECON,ioos:station:SCCF:51:1,2008-04-05T09:00:00Z,26.5545,-82.1715,7.4,1111122 
SCCF RECON,ioos:station:SCCF:51:1,2008-04-05T10:00:00Z,26.5545,-82.1715,6.45,1111122 
SCCF RECON,ioos:station:SCCF:51:1,2008-04-05T11:00:00Z,26.5545,-82.1715,5.98,1111122 
SCCF RECON,ioos:station:SCCF:51:1,2008-04-05T12:00:00Z,26.5545,-82.1715,10.79,1111122 
SCCF RECON,ioos:station:SCCF:51:1,2008-04-05T13:00:00Z,26.5545,-82.1715,7.98,1111122 
SCCF RECON,ioos:station:SCCF:51:1,2008-04-05T14:00:00Z,26.5545,-82.1715,7.44,1111122 
SCCF RECON,ioos:station:SCCF:51:1,2008-04-05T15:00:00Z,26.5545,-82.1715,9.26,1111122 
SCCF RECON,ioos:station:SCCF:51:1,2008-04-05T16:00:00Z,26.5545,-82.1715,9.01,1111122 
SCCF RECON,ioos:station:SCCF:51:1,2008-04-05T17:00:00Z,26.5545,-82.1715,9.41,1111122 
SCCF RECON,ioos:station:SCCF:51:1,2008-04-05T18:00:00Z,26.5545,-82.1715,8.41,1111122 
SCCF RECON,ioos:station:SCCF:51:1,2008-04-05T19:00:00Z,26.5545,-82.1715,7.89,1111122 
SCCF RECON,ioos:station:SCCF:51:1,2008-04-05T20:00:00Z,26.5545,-82.1715,9.0,1111122 
SCCF RECON,ioos:station:SCCF:51:1,2008-04-05T21:00:00Z,26.5545,-82.1715,7.97,1111122 
SCCF RECON,ioos:station:SCCF:51:1,2008-04-05T22:00:00Z,26.5545,-82.1715,6.47,1111122 
SCCF RECON,ioos:station:SCCF:51:1,2008-04-05T23:00:00Z,26.5545,-82.1715,6.54,1111122 
SCCF RECON,ioos:station:SCCF:51:1,2008-04-06T00:00:00Z,26.5545,-82.1715,7.38,1111122 
SCCF RECON,ioos:station:SCCF:51:1,2008-04-06T01:00:00Z,26.5545,-82.1715,7.46,1111122 
SCCF RECON,ioos:station:SCCF:51:1,2008-04-06T02:00:00Z,26.5545,-82.1715,8.4,1111122 
SCCF RECON,ioos:station:SCCF:51:1,2008-04-06T03:00:00Z,26.5545,-82.1715,11.61,1111122 
SCCF RECON,ioos:station:SCCF:51:1,2008-04-06T04:00:00Z,26.5545,-82.1715,12.85,1111122 
SCCF RECON,ioos:station:SCCF:51:1,2008-04-06T05:00:00Z,26.5545,-82.1715,10.59,1111122 
SCCF RECON,ioos:station:SCCF:51:1,2008-04-06T06:00:00Z,26.5545,-82.1715,10.97,1111122 
SCCF RECON,ioos:station:SCCF:51:1,2008-04-06T07:00:00Z,26.5545,-82.1715,11.31,1111122 
SCCF RECON,ioos:station:SCCF:51:1,2008-04-06T08:00:00Z,26.5545,-82.1715,8.77,1111122 
SCCF RECON,ioos:station:SCCF:51:1,2008-04-06T09:00:00Z,26.5545,-82.1715,8.74,1111122 
SCCF RECON,ioos:station:SCCF:51:1,2008-04-06T10:00:00Z,26.5545,-82.1715,12.53,1111122 
SCCF RECON,ioos:station:SCCF:51:1,2008-04-06T11:00:00Z,26.5545,-82.1715,7.47,1111122 
SCCF RECON,ioos:station:SCCF:51:1,2008-04-06T12:00:00Z,26.5545,-82.1715,9.58,1111122 
SCCF RECON,ioos:station:SCCF:51:1,2008-04-06T13:00:00Z,26.5545,-82.1715,8.32,1111122 
SCCF RECON,ioos:station:SCCF:51:1,2008-04-06T14:00:00Z,26.5545,-82.1715,8.92,1111122 
SCCF RECON,ioos:station:SCCF:51:1,2008-04-06T15:00:00Z,26.5545,-82.1715,11.85,1111122 
SCCF RECON,ioos:station:SCCF:51:1,2008-04-06T16:00:00Z,26.5545,-82.1715,12.91,1111122 
SCCF RECON,ioos:station:SCCF:51:1,2008-04-06T17:00:00Z,26.5545,-82.1715,9.57,1111122 
SCCF RECON,ioos:station:SCCF:51:1,2008-04-06T18:00:00Z,26.5545,-82.1715,9.43,1111122 
SCCF RECON,ioos:station:SCCF:51:1,2008-04-06T19:00:00Z,26.5545,-82.1715,11.57,1111122 
SCCF RECON,ioos:station:SCCF:51:1,2008-04-06T20:00:00Z,26.5545,-82.1715,10.56,1111122 
SCCF RECON,ioos:station:SCCF:51:1,2008-04-06T21:00:00Z,26.5545,-82.1715,10.09,1111122 
SCCF RECON,ioos:station:SCCF:51:1,2008-04-06T22:00:00Z,26.5545,-82.1715,8.93,1111122 
SCCF RECON,ioos:station:SCCF:51:1,2008-04-06T23:00:00Z,26.5545,-82.1715,9.04,1111122 
SCCF RECON,ioos:station:SCCF:51:1,2008-04-07T00:00:00Z,26.5545,-82.1715,7.37,1111122 
SCCF RECON,ioos:station:SCCF:51:1,2008-04-07T01:00:00Z,26.5545,-82.1715,6.84,1111122 
SCCF RECON,ioos:station:SCCF:51:1,2008-04-07T02:00:00Z,26.5545,-82.1715,14.11,1111122 
SCCF RECON,ioos:station:SCCF:51:1,2008-04-07T03:00:00Z,26.5545,-82.1715,11.66,1111122 
SCCF RECON,ioos:station:SCCF:51:1,2008-04-07T04:00:00Z,26.5545,-82.1715,12.03,1111122 
SCCF RECON,ioos:station:SCCF:51:1,2008-04-07T05:00:00Z,26.5545,-82.1715,14.94,1111122 
SCCF RECON,ioos:station:SCCF:51:1,2008-04-07T06:00:00Z,26.5545,-82.1715,9.0,1111122 
SCCF RECON,ioos:station:SCCF:51:1,2008-04-07T07:00:00Z,26.5545,-82.1715,9.71,1111122 
SCCF RECON,ioos:station:SCCF:51:1,2008-04-07T08:00:00Z,26.5545,-82.1715,8.85,1111122 
SCCF RECON,ioos:station:SCCF:51:1,2008-04-07T09:00:00Z,26.5545,-82.1715,8.05,1111122 
SCCF RECON,ioos:station:SCCF:51:1,2008-04-07T10:00:00Z,26.5545,-82.1715,7.59,1111122 
SCCF RECON,ioos:station:SCCF:51:1,2008-04-07T11:00:00Z,26.5545,-82.1715,8.16,1111122 
SCCF RECON,ioos:station:SCCF:51:1,2008-04-07T12:00:00Z,26.5545,-82.1715,8.52,1111122 
SCCF RECON,ioos:station:SCCF:51:1,2008-04-07T13:00:00Z,26.5545,-82.1715,11.14,1111122 
SCCF RECON,ioos:station:SCCF:51:1,2008-04-07T14:00:00Z,26.5545,-82.1715,12.53,1111122 
SCCF RECON,ioos:station:SCCF:51:1,2008-04-07T15:00:00Z,26.5545,-82.1715,9.7,1111122 
SCCF RECON,ioos:station:SCCF:51:1,2008-04-07T16:00:00Z,26.5545,-82.1715,9.9,1111122 
SCCF RECON,ioos:station:SCCF:51:1,2008-04-07T17:00:00Z,26.5545,-82.1715,14.83,1111122 
SCCF RECON,ioos:station:SCCF:51:1,2008-04-07T18:00:00Z,26.5545,-82.1715,15.03,1111122 
SCCF RECON,ioos:station:SCCF:51:1,2008-04-07T19:00:00Z,26.5545,-82.1715,10.46,1111122 
SCCF RECON,ioos:station:SCCF:51:1,2008-04-07T20:00:00Z,26.5545,-82.1715,12.2,1111122 
SCCF RECON,ioos:station:SCCF:51:1,2008-04-07T21:00:00Z,26.5545,-82.1715,10.5,1111122 
SCCF RECON,ioos:station:SCCF:51:1,2008-04-07T22:00:00Z,26.5545,-82.1715,11.5,1111122 
SCCF RECON,ioos:station:SCCF:51:1,2008-04-07T23:00:00Z,26.5545,-82.1715,10.18,1111122 
SCCF RECON,ioos:station:SCCF:51:1,2008-04-08T00:00:00Z,26.5545,-82.1715,8.42,1111122 
SCCF RECON,ioos:station:SCCF:51:1,2008-04-08T01:00:00Z,26.5545,-82.1715,6.73,1111122 
SCCF RECON,ioos:station:SCCF:51:1,2008-04-08T02:00:00Z,26.5545,-82.1715,6.86,1111122 
SCCF RECON,ioos:station:SCCF:51:1,2008-04-08T03:00:00Z,26.5545,-82.1715,6.32,1111122 
SCCF RECON,ioos:station:SCCF:51:1,2008-04-08T04:00:00Z,26.5545,-82.1715,8.33,1111122 
SCCF RECON,ioos:station:SCCF:51:1,2008-04-08T05:00:00Z,26.5545,-82.1715,8.99,1111122 
SCCF RECON,ioos:station:SCCF:51:1,2008-04-08T06:00:00Z,26.5545,-82.1715,9.86,1111122 
SCCF RECON,ioos:station:SCCF:51:1,2008-04-08T07:00:00Z,26.5545,-82.1715,11.0,1111122 
SCCF RECON,ioos:station:SCCF:51:1,2008-04-08T08:00:00Z,26.5545,-82.1715,7.44,1111122 
SCCF RECON,ioos:station:SCCF:51:1,2008-04-08T09:00:00Z,26.5545,-82.1715,8.14,1111122 
SCCF RECON,ioos:station:SCCF:51:1,2008-04-08T10:00:00Z,26.5545,-82.1715,7.12,1111122 
SCCF RECON,ioos:station:SCCF:51:1,2008-04-08T11:00:00Z,26.5545,-82.1715,6.77,1111122 
SCCF RECON,ioos:station:SCCF:51:1,2008-04-08T12:00:00Z,26.5545,-82.1715,6.67,1111122 
SCCF RECON,ioos:station:SCCF:51:1,2008-04-08T13:00:00Z,26.5545,-82.1715,7.97,1111122 
SCCF RECON,ioos:station:SCCF:51:1,2008-04-08T14:00:00Z,26.5545,-82.1715,8.52,1111122 
SCCF RECON,ioos:station:SCCF:51:1,2008-04-08T15:00:00Z,26.5545,-82.1715,8.74,1111122 
SCCF RECON,ioos:station:SCCF:51:1,2008-04-08T16:00:00Z,26.5545,-82.1715,8.81,1111122 
SCCF RECON,ioos:station:SCCF:51:1,2008-04-08T17:00:00Z,26.5545,-82.1715,9.74,1111122 
SCCF RECON,ioos:station:SCCF:51:1,2008-04-08T18:00:00Z,26.5545,-82.1715,7.34,1111122 
SCCF RECON,ioos:station:SCCF:51:1,2008-04-08T19:00:00Z,26.5545,-82.1715,7.17,1111122 
SCCF RECON,ioos:station:SCCF:51:1,2008-04-08T20:00:00Z,26.5545,-82.1715,8.55,1111122 
SCCF RECON,ioos:station:SCCF:51:1,2008-04-08T21:00:00Z,26.5545,-82.1715,9.01,1111122 
SCCF RECON,ioos:station:SCCF:51:1,2008-04-08T22:00:00Z,26.5545,-82.1715,8.24,1111122 
SCCF RECON,ioos:station:SCCF:51:1,2008-04-08T23:00:00Z,26.5545,-82.1715,8.75,1111122 
SCCF RECON,ioos:station:SCCF:51:1,2008-04-09T00:00:00Z,26.5545,-82.1715,7.58,1111122 
SCCF RECON,ioos:station:SCCF:51:1,2008-04-09T01:00:00Z,26.5545,-82.1715,6.31,1111122 
SCCF RECON,ioos:station:SCCF:51:1,2008-04-09T02:00:00Z,26.5545,-82.1715,7.22,1111122 
SCCF RECON,ioos:station:SCCF:51:1,2008-04-09T03:00:00Z,26.5545,-82.1715,5.44,1111122 
SCCF RECON,ioos:station:SCCF:51:1,2008-04-09T04:00:00Z,26.5545,-82.1715,5.87,1111122 
SCCF RECON,ioos:station:SCCF:51:1,2008-04-09T05:00:00Z,26.5545,-82.1715,6.19,1111122 
SCCF RECON,ioos:station:SCCF:51:1,2008-04-09T06:00:00Z,26.5545,-82.1715,8.02,1111122 
SCCF RECON,ioos:station:SCCF:51:1,2008-04-09T07:00:00Z,26.5545,-82.1715,8.84,1111122 
SCCF RECON,ioos:station:SCCF:51:1,2008-04-09T08:00:00Z,26.5545,-82.1715,7.47,1111122 
SCCF RECON,ioos:station:SCCF:51:1,2008-04-09T09:00:00Z,26.5545,-82.1715,6.59,1111122 
SCCF RECON,ioos:station:SCCF:51:1,2008-04-09T10:00:00Z,26.5545,-82.1715,7.02,1111122 
SCCF RECON,ioos:station:SCCF:51:1,2008-04-09T11:00:00Z,26.5545,-82.1715,7.47,1111122 
SCCF RECON,ioos:station:SCCF:51:1,2008-04-09T12:00:00Z,26.5545,-82.1715,7.61,1111122 
SCCF RECON,ioos:station:SCCF:51:1,2008-04-09T13:00:00Z,26.5545,-82.1715,6.42,1111122 
SCCF RECON,ioos:station:SCCF:51:1,2008-04-09T14:00:00Z,26.5545,-82.1715,6.25,1111122 
SCCF RECON,ioos:station:SCCF:51:1,2008-04-09T15:00:00Z,26.5545,-82.1715,7.65,1111122 
SCCF RECON,ioos:station:SCCF:51:1,2008-04-09T16:00:00Z,26.5545,-82.1715,8.49,1111122 
SCCF RECON,ioos:station:SCCF:51:1,2008-04-09T17:00:00Z,26.5545,-82.1715,15.31,1111122 
SCCF RECON,ioos:station:SCCF:51:1,2008-04-09T18:00:00Z,26.5545,-82.1715,7.67,1111122 
SCCF RECON,ioos:station:SCCF:51:1,2008-04-09T19:00:00Z,26.5545,-82.1715,11.47,1111122 
SCCF RECON,ioos:station:SCCF:51:1,2008-04-09T20:00:00Z,26.5545,-82.1715,6.12,1111122 
SCCF RECON,ioos:station:SCCF:51:1,2008-04-09T21:00:00Z,26.5545,-82.1715,6.57,1111122 
SCCF RECON,ioos:station:SCCF:51:1,2008-04-09T22:00:00Z,26.5545,-82.1715,7.37,1111122 
SCCF RECON,ioos:station:SCCF:51:1,2008-04-09T23:00:00Z,26.5545,-82.1715,8.23,1111122 
SCCF RECON,ioos:station:SCCF:51:1,2008-04-10T00:00:00Z,26.5545,-82.1715,7.35,1111122 
SCCF RECON,ioos:station:SCCF:51:1,2008-04-10T01:00:00Z,26.5545,-82.1715,7.47,1111122 
SCCF RECON,ioos:station:SCCF:51:1,2008-04-10T02:00:00Z,26.5545,-82.1715,6.33,1111122 
SCCF RECON,ioos:station:SCCF:51:1,2008-04-10T03:00:00Z,26.5545,-82.1715,5.36,1111122 
SCCF RECON,ioos:station:SCCF:51:1,2008-04-10T04:00:00Z,26.5545,-82.1715,5.49,1111122 
SCCF RECON,ioos:station:SCCF:51:1,2008-04-10T05:00:00Z,26.5545,-82.1715,5.59,1111122 
SCCF RECON,ioos:station:SCCF:51:1,2008-04-10T06:00:00Z,26.5545,-82.1715,9.35,1111122 
SCCF RECON,ioos:station:SCCF:51:1,2008-04-10T07:00:00Z,26.5545,-82.1715,8.2,1111122 
SCCF RECON,ioos:station:SCCF:51:1,2008-04-10T08:00:00Z,26.5545,-82.1715,10.36,1111122 
SCCF RECON,ioos:station:SCCF:51:1,2008-04-10T09:00:00Z,26.5545,-82.1715,8.92,1111122 
SCCF RECON,ioos:station:SCCF:51:1,2008-04-10T10:00:00Z,26.5545,-82.1715,6.11,1111122 
SCCF RECON,ioos:station:SCCF:51:1,2008-04-10T11:00:00Z,26.5545,-82.1715,9.24,1111122 
SCCF RECON,ioos:station:SCCF:51:1,2008-04-10T12:00:00Z,26.5545,-82.1715,11.95,1111122 
SCCF RECON,ioos:station:SCCF:51:1,2008-04-10T13:00:00Z,26.5545,-82.1715,7.4,1111122 
SCCF RECON,ioos:station:SCCF:51:1,2008-04-10T14:00:00Z,26.5545,-82.1715,8.84,1111122 
SCCF RECON,ioos:station:SCCF:51:1,2008-04-10T15:00:00Z,26.5545,-82.1715,6.95,1111122 
SCCF RECON,ioos:station:SCCF:51:1,2008-04-10T16:00:00Z,26.5545,-82.1715,15.58,1111122 
SCCF RECON,ioos:station:SCCF:51:1,2008-04-10T17:00:00Z,26.5545,-82.1715,7.58,1111122 
SCCF RECON,ioos:station:SCCF:51:1,2008-04-10T18:00:00Z,26.5545,-82.1715,5.92,1111122 
SCCF RECON,ioos:station:SCCF:51:1,2008-04-10T19:00:00Z,26.5545,-82.1715,7.4,1111122 
SCCF RECON,ioos:station:SCCF:51:1,2008-04-10T20:00:00Z,26.5545,-82.1715,5.94,1111122 
SCCF RECON,ioos:station:SCCF:51:1,2008-04-10T21:00:00Z,26.5545,-82.1715,7.21,1111122 
SCCF RECON,ioos:station:SCCF:51:1,2008-04-10T22:00:00Z,26.5545,-82.1715,8.83,1111122 
SCCF RECON,ioos:station:SCCF:51:1,2008-04-10T23:00:00Z,26.5545,-82.1715,7.68,1111122 
SCCF RECON,ioos:station:SCCF:51:1,2008-04-11T00:00:00Z,26.5545,-82.1715,6.76,1111122 
SCCF RECON,ioos:station:SCCF:51:1,2008-04-11T01:00:00Z,26.5545,-82.1715,7.34,1111122 
SCCF RECON,ioos:station:SCCF:51:1,2008-04-11T02:00:00Z,26.5545,-82.1715,17.61,1111122 
SCCF RECON,ioos:station:SCCF:51:1,2008-04-11T03:00:00Z,26.5545,-82.1715,7.92,1111122 
SCCF RECON,ioos:station:SCCF:51:1,2008-04-11T04:00:00Z,26.5545,-82.1715,4.53,1111122 
SCCF RECON,ioos:station:SCCF:51:1,2008-04-11T05:00:00Z,26.5545,-82.1715,5.02,1111122 
SCCF RECON,ioos:station:SCCF:51:1,2008-04-11T06:00:00Z,26.5545,-82.1715,5.98,1111122 
SCCF RECON,ioos:station:SCCF:51:1,2008-04-11T07:00:00Z,26.5545,-82.1715,6.22,1111122 
SCCF RECON,ioos:station:SCCF:51:1,2008-04-11T08:00:00Z,26.5545,-82.1715,6.54,1111122 
SCCF RECON,ioos:station:SCCF:51:1,2008-04-11T09:00:00Z,26.5545,-82.1715,7.58,1111122 
SCCF RECON,ioos:station:SCCF:51:1,2008-04-11T10:00:00Z,26.5545,-82.1715,6.77,1111122 
SCCF RECON,ioos:station:SCCF:51:1,2008-04-11T11:00:00Z,26.5545,-82.1715,5.83,1111122 
SCCF RECON,ioos:station:SCCF:51:1,2008-04-11T12:00:00Z,26.5545,-82.1715,5.97,1111122 
SCCF RECON,ioos:station:SCCF:51:1,2008-04-11T13:00:00Z,26.5545,-82.1715,6.0,1111122 
SCCF RECON,ioos:station:SCCF:51:1,2008-04-11T14:00:00Z,26.5545,-82.1715,5.94,1111122 
SCCF RECON,ioos:station:SCCF:51:1,2008-04-11T15:00:00Z,26.5545,-82.1715,6.01,1111122 
SCCF RECON,ioos:station:SCCF:51:1,2008-04-11T16:00:00Z,26.5545,-82.1715,7.52,1111122 
SCCF RECON,ioos:station:SCCF:51:1,2008-04-11T17:00:00Z,26.5545,-82.1715,10.97,1111122 
SCCF RECON,ioos:station:SCCF:51:1,2008-04-11T18:00:00Z,26.5545,-82.1715,6.49,1111122 
SCCF RECON,ioos:station:SCCF:51:1,2008-04-11T19:00:00Z,26.5545,-82.1715,6.76,1111122 
SCCF RECON,ioos:station:SCCF:51:1,2008-04-11T20:00:00Z,26.5545,-82.1715,5.61,1111122 
SCCF RECON,ioos:station:SCCF:51:1,2008-04-11T21:00:00Z,26.5545,-82.1715,10.64,1111122 
SCCF RECON,ioos:station:SCCF:51:1,2008-04-11T22:00:00Z,26.5545,-82.1715,6.46,1111122 
SCCF RECON,ioos:station:SCCF:51:1,2008-04-11T23:00:00Z,26.5545,-82.1715,6.09,1111122 
SCCF RECON,ioos:station:SCCF:51:1,2008-04-12T00:00:00Z,26.5545,-82.1715,7.15,1111122 
SCCF RECON,ioos:station:SCCF:51:1,2008-04-12T01:00:00Z,26.5545,-82.1715,7.02,1111122 
SCCF RECON,ioos:station:SCCF:51:1,2008-04-12T02:00:00Z,26.5545,-82.1715,6.85,1111122 
SCCF RECON,ioos:station:SCCF:51:1,2008-04-12T03:00:00Z,26.5545,-82.1715,6.38,1111122 
SCCF RECON,ioos:station:SCCF:51:1,2008-04-12T04:00:00Z,26.5545,-82.1715,6.04,1111122 
SCCF RECON,ioos:station:SCCF:51:1,2008-04-12T05:00:00Z,26.5545,-82.1715,5.94,1111122 
SCCF RECON,ioos:station:SCCF:51:1,2008-04-12T06:00:00Z,26.5545,-82.1715,25.62,1111122 
SCCF RECON,ioos:station:SCCF:51:1,2008-04-12T07:00:00Z,26.5545,-82.1715,5.38,1111122 
SCCF RECON,ioos:station:SCCF:51:1,2008-04-12T08:00:00Z,26.5545,-82.1715,6.9,1111122 
SCCF RECON,ioos:station:SCCF:51:1,2008-04-12T09:00:00Z,26.5545,-82.1715,11.78,1111122 
SCCF RECON,ioos:station:SCCF:51:1,2008-04-12T10:00:00Z,26.5545,-82.1715,17.05,1111122 
SCCF RECON,ioos:station:SCCF:51:1,2008-04-12T11:00:00Z,26.5545,-82.1715,13.08,1111122 
SCCF RECON,ioos:station:SCCF:51:1,2008-04-12T12:00:00Z,26.5545,-82.1715,6.04,1111122 
SCCF RECON,ioos:station:SCCF:51:1,2008-04-12T13:00:00Z,26.5545,-82.1715,6.09,1111122 
SCCF RECON,ioos:station:SCCF:51:1,2008-04-12T14:00:00Z,26.5545,-82.1715,5.59,1111122 
SCCF RECON,ioos:station:SCCF:51:1,2008-04-12T15:00:00Z,26.5545,-82.1715,5.53,1111122 